ICEYE-X25

导读

ICEYE-X25是芬兰ICEYE公司的X波段合成孔径雷达(SAR)卫星,于2023年6月12日发射入轨,属于ICEYE商业遥感星座的组成部分。它搭载先进的X波段SAR传感器,可穿透云层、不受光照影响全天时对地成像,单颗质量约85kg,支持多模式成像,能为自然灾害监测、海事监管、资源勘探等领域提供高重访率的地理空间数据,助力全球高频次地表变化观测与行业应用。

基本信息
目录编号:
56963
目录名称:
ICEYE-X25
国际标识:
2023-084AH
轨道中心:
EARTH
卫星名称:
ICEYE-X25
卫星全名:
--
卫星状态:
在轨 (已飞行1141 天)
发射日期:
2023-06-12 UTC
国别 :
(FI)
星等 :
--
轨道信息
数据来源 国际轨道数据
星历时间: 2026-07-28T00:07:21+0800
5小时前
查看轨道信息
半长轴: 6755.745km
偏心率: 0.0004769
轨道倾角: 97.592°
近地点辐角 146.908°
升交点赤经 357.827°
平近点角 213.248°
近地点: 374.386km
远地点: 380.83km
周期: 92.102分钟
每日圈数: 15.634823
详细信息
使用方式:
暂无
2D轨道图
3D轨道图
轨道高度分析图
轨道倾角分析图
轨道综合分析图
查看轨道综合分析图